Location: Fort Halstead
(51.3167°N, 0.1333°E)
Time: 14:18:39
(UTC+00:00)

Daily predictions for brighter satellites

Satellite Brightness Start Highest point End
(mag) Time Altitude Azimuth Time Altitude Azimuth Time Altitude Azimuth
NOSS 2-2 (C) 4.2 16:24:34 10° NW 16:29:20 66° NE 16:35:58 10° SE
Cosmos 1818 4.2 16:25:09 10° NW 16:30:14 36° NNE 16:35:16 10° E
Cosmos 2034 Rocket 4.1 16:25:03 10° S 16:31:03 57° E 16:37:04 10° NNE
FengYun 1-2 T 4.4 16:26:06 10° SE 16:31:28 51° ENE 16:36:48 10° N
SL-16 R/B 3.4 16:27:07 10° NNW 16:31:31 22° NE 16:35:54 10° E
Cosmos 2237 Rocket 4.4 16:31:34 10° N 16:31:51 10° N 16:32:07 10° N
CZ-4B R/B 2.9 16:28:03 10° SSE 16:31:53 51° ENE 16:35:33 10° N
Iridium 2 4.3 16:28:11 10° NNW 16:31:55 60° W 16:35:35 10° S
Cosmos 1408 Rocket 3.8 16:30:05 10° NNW 16:34:27 78° W 16:38:51 10° S
ADEOS 3.8 16:30:45 10° SSE 16:35:58 77° WSW 16:41:15 10° NNW
Cosmos 2082 Rocket 3.3 16:33:22 10° SSE 16:37:55 25° ESE 16:42:28 10° NE
USA 267 3.9 16:32:50 10° ENE 16:38:58 41° SE 16:45:05 10° SSW
SMAP 3.3 16:38:01 10° SE 16:42:27 46° ENE 16:46:55 10° N
Cosmos 1743 Rocket 3.5 16:40:16 10° N 16:44:36 76° ENE 16:48:56 10° SSE
Cosmos 2333 Rocket 4.0 16:43:03 10° N 16:45:59 14° NNE 16:48:54 10° NE
Meteor 1-25 Rocket 4.2 16:40:35 10° N 16:46:10 71° ENE 16:51:46 10° SSE
Cosmos 2278 4.0 16:42:18 10° NNW 16:47:50 48° NE 16:53:19 10° SE
Cosmos 1763 Rocket 3.5 16:43:21 10° SSW 16:48:23 67° ESE 16:53:31 10° NNE
Cosmos 2026 Rocket 4.1 16:42:56 10° N 16:48:57 54° ENE 16:54:53 10° SSE
ARGOS 4.2 16:45:09 10° ESE 16:49:23 24° ENE 16:53:36 10° N
Cosmos 1602 3.8 16:45:47 10° N 16:49:36 54° ENE 16:53:24 10° SSE
Cosmos 1634 Rocket 4.5 16:44:07 10° SSE 16:49:57 41° E 16:55:48 10° NNE
SL-16 R/B 4.4 16:50:14 10° NW 16:52:10 12° NNW 16:54:05 10° N
Cosmos 44 Rocket 3.7 16:47:46 10° NW 16:52:31 41° NE 16:57:05 10° ESE
CZ-4B DEB 4.4 16:47:16 10° SE 16:52:31 48° ENE 16:57:47 10° N
SJ 16-02 4.4 16:50:04 10° NW 16:52:54 17° W 16:55:45 10° SW
Cosmos 2195 Rocket 4.5 16:46:56 10° N 16:53:04 66° ENE 16:59:15 10° SSE
SeaSat 1 3.5 16:50:34 10° NNE 16:55:13 42° NW 16:59:50 10° WSW
Cosmos 1833 Rocket 2.8 16:49:42 10° SSW 16:55:15 65° ESE 17:00:51 10° NE
Cosmos 1666 Rocket 4.3 16:51:47 10° N 16:55:47 32° ENE 16:59:44 10° SE
Cosmos 841 Rocket 4.0 16:52:07 10° S 16:56:51 38° ESE 17:01:35 10° NE
CZ-2C R/B 3.0 16:52:36 10° SSE 16:57:27 81° WSW 17:02:14 10° NNW
Okean O Rocket 2.8 16:55:53 10° ESE 16:59:17 22° ENE 17:02:43 10° N
USA 306 3.0 16:55:45 10° WNW 16:59:58 60° N 17:03:36 14° E
Cosmos 1937 Rocket 3.6 16:55:25 10° NNW 17:00:47 85° WSW 17:06:06 10° SSE
Cosmos 1809 Rocket 4.4 16:54:59 10° N 17:01:06 71° ENE 17:07:09 10° SSE
Cosmos 2219 Rocket 4.0 16:59:50 10° N 17:02:38 14° NNE 17:04:47 11° NE
H-2A R/B 2.4 16:57:58 10° SE 17:02:43 40° ENE 17:07:23 10° N
ISS -2.5 17:00:01 10° W 17:03:16 43° SSW 17:06:30 10° SE
Cosmos 1939 Rocket 2.8 16:59:45 10° SSE 17:03:51 74° ENE 17:07:55 10° N
COSMOS 2406 3.3 16:58:48 10° SSW 17:04:26 60° ESE 17:10:05 10° NE
ATLAS 2AS CENTAUR R/B 3.9 16:57:58 10° WNW 17:04:48 33° N 17:10:36 13° NE
Cosmos 1606 4.2 17:02:03 10° SW 17:05:33 35° WNW 17:09:07 10° N
Cosmos 372 Rocket 3.9 17:00:21 10° NNW 17:05:36 73° ENE 17:10:51 10° SSE
Cosmos 1125 Rocket 4.3 17:02:14 10° N 17:06:47 29° NE 17:11:19 10° ESE
CZ-2C R/B 3.7 17:02:59 10° NE 17:06:58 22° E 17:10:56 10° SE
Cosmos 1500 3.1 17:05:48 10° N 17:09:31 59° ENE 17:13:11 10° SSE
Cosmos 1500 Rocket 4.4 17:07:56 10° NNW 17:12:18 56° W 17:16:36 10° S
USA 234 3.4 17:07:58 10° ESE 17:14:32 82° SSW 17:21:06 10° WNW
Sich 1 2.9 17:12:48 10° N 17:17:07 82° E 17:21:26 10° SSE
Cosmos 1782 2.9 17:13:27 10° S 17:17:21 56° E 17:21:16 10° NNE
Cosmos 2221 3.9 17:13:38 10° SW 17:17:39 38° WNW 17:21:43 10° N
SL-08 R/B 3.7 17:13:55 10° N 17:18:36 63° WNW 17:23:11 10° SSW
CZ-2D R/B 3.3 17:15:32 10° SSE 17:19:15 51° ENE 17:22:58 10° N
USA 307 3.0 17:15:24 10° WNW 17:19:38 62° N 17:22:25 20° E
CZ-4B R/B 3.4 17:16:38 10° SE 17:21:45 46° ENE 17:26:49 10° N
ATLAS 5 CENTAUR R/B 2.7 17:14:36 10° NW 17:24:10 55° NNE 17:26:27 20° E
Cosmos 1805 Rocket 3.9 17:20:08 10° NNW 17:24:28 68° W 17:28:45 10° S
NOAA 6 4.1 17:19:38 10° SSE 17:24:47 81° WSW 17:29:57 10° NNW
SL-24 R/B - RUBIN 2 4.4 17:22:54 10° NW 17:27:22 54° SW 17:31:35 10° SSE
PAYLOAD B 4.2 17:22:20 10° SSE 17:27:54 70° ENE 17:33:29 10° NNW
ERBS 3.4 17:27:00 10° WNW 17:29:52 29° N 17:30:53 24° NNE
deb Chang Zheng 4 3.8 17:27:41 10° SE 17:31:47 44° ENE 17:35:54 10° N
Cosmos 2360 Rocket 3.1 17:30:47 10° NNW 17:35:38 27° NE 17:37:21 24° ENE
Lacrosse 5 rocket 1.1 17:32:28 10° WNW 17:36:22 87° NE 17:39:14 19° ESE
Cosmos 540 Rocket 3.5 17:31:20 10° SSW 17:36:27 85° WNW 17:41:13 12° NNE
H-2A R/B 4.5 17:40:45 13° NNE 17:40:45 13° NNE 17:41:21 10° N
Cosmos 1666 2.5 17:34:53 10° N 17:38:37 70° ENE 17:42:18 10° SSE
ATLAS CENTAUR R/B 3.6 17:35:40 10° NW 17:38:43 18° NNW 17:41:01 13° NNE
USA 308 2.9 17:38:02 10° WNW 17:42:17 67° NNE 17:44:08 32° E
Meteor 2-16 Rocket 4.4 17:41:55 10° N 17:48:04 84° ENE 17:54:13 10° SSE
Meteor 1-11 Rocket 3.9 17:45:46 10° N 17:51:10 45° ENE 17:56:38 10° SE
Meteor 1-26 Rocket 4.5 17:45:54 10° SSW 17:51:55 81° WNW 17:58:01 10° N
COSMOS 2428 4.2 17:48:06 10° NNW 17:52:00 18° NNE 17:52:06 18° NNE
COSMOS 2455 2.8 17:46:32 10° SW 17:52:35 88° SE 17:56:39 22° NE
PSLV R/B 4.3 17:51:04 10° S 17:54:42 57° WSW 17:58:26 10° NNW
CZ-4 R/B 3.5 17:59:19 14° N 17:59:19 14° N 18:00:01 10° N
Cosmos 2322 Rocket 2.4 17:51:45 10° NNW 17:57:18 49° NE 18:00:16 26° ESE
Cosmos 1814 Rocket 3.9 17:52:39 10° SSW 17:57:50 73° ESE 18:00:57 24° NNE
Cosmos 921 Rocket 3.6 17:54:24 10° S 17:57:55 36° ESE 17:57:55 36° ESE
YAOGAN 3 4.5 17:54:38 10° SSE 17:58:57 68° ENE 18:03:19 10° N
Cosmos 1570 Rocket 3.9 17:53:46 10° S 17:58:58 66° ESE 18:01:48 27° NE
Cosmos 2298 Rocket 3.9 17:55:23 10° NNW 18:00:44 72° ENE 18:06:03 10° SSE
SL-08 RB Rocket 3.8 17:56:35 10° SE 18:01:04 52° ENE 18:05:33 10° N
COSMO-SKYMED 1 2.6 17:59:54 36° NE 18:01:22 54° E 18:05:37 10° S
Cosmos 1980 Rocket 3.4 17:56:25 10° NW 18:01:47 45° WSW 18:07:05 10° S
CZ-4C R/B 3.4 17:55:33 10° NW 18:02:35 64° SW 18:10:50 10° SSE
Cosmos 1356 Rocket 3.7 18:00:34 10° N 18:04:07 45° NE 18:04:07 45° NE
Cosmos 1633 Rocket 3.3 18:01:43 10° NNW 18:06:05 70° W 18:10:26 10° S
Cosmos 1812 2.9 18:03:39 10° SSW 18:07:29 70° WNW 18:09:54 22° N
USA 305 2.8 18:03:29 10° WNW 18:07:46 82° NNE 18:08:38 55° E
Feng Yun 1-1 Rocket 4.3 18:06:33 10° SSE 18:12:23 64° ENE 18:18:09 10° N
YAOGAN 1 3.5 18:14:03 33° NNE 18:14:03 33° NNE 18:16:44 10° N
Cosmos 1818 3.9 18:08:44 10° NW 18:14:11 66° SW 18:19:34 10° SSE
CZ-4 R/B 4.3 18:10:04 10° SSE 18:14:12 89° ENE 18:18:22 10° NNW
Cosmos 1151 Rocket 3.2 18:10:13 10° SSW 18:14:32 71° WNW 18:17:49 17° N
Cosmos 2279 Rocket 4.0 18:09:04 10° SSW 18:15:17 83° W 18:21:32 10° N
SL-16 R/B 2.1 18:10:49 10° NNW 18:16:33 80° ENE 18:21:04 17° SE
Cosmos 2266 Rocket 3.9 18:10:23 10° N 18:16:47 75° ENE 18:23:13 10° SSE
Cosmos 2237 Rocket 4.1 18:15:43 10° N 18:17:59 14° NNE 18:17:59 14° NNE
Cosmos 2082 Rocket 2.5 18:15:54 10° SW 18:21:33 66° WNW 18:24:52 25° NNE
USA 267 3.2 18:19:25 36° ENE 18:22:23 84° NNW 18:28:56 10° WSW
Landsat 5 4.1 18:25:10 41° SSE 18:25:10 41° SSE 18:27:55 10° S
SKYMED 3 4.5 18:24:19 47° NNE 18:25:32 89° W 18:29:52 10° SSW
NOAA 15 4.5 18:20:26 10° SSE 18:25:40 68° ENE 18:30:56 10° N
ARGOS 3.4 18:23:48 10° S 18:29:11 70° WSW 18:34:37 10° NNW
Cosmos 1933 Rocket 3.8 18:27:03 10° N 18:30:32 56° N 18:30:32 56° N
GEOS 3 Rocket 3.5 18:30:35 57° ESE 18:31:36 73° NE 18:36:47 10° NW
Cosmos 2333 Rocket 3.1 18:26:46 10° NNW 18:31:05 33° NNE 18:31:05 33° NNE
Meteor 2-15 4.3 18:26:13 10° S 18:32:20 86° E 18:38:27 10° NNE
Cosmos 44 Rocket 4.3 18:29:25 10° NW 18:34:07 44° WSW 18:38:14 12° S
Okean O Rocket 2.2 18:30:55 10° S 18:35:18 56° W 18:39:43 10° NNW
Cosmos 2208 Rocket 4.1 18:30:17 10° SSW 18:35:42 82° WNW 18:37:42 41° NNE
Cosmos 2150 Rocket 4.3 18:32:02 10° NNW 18:37:11 66° WSW 18:42:21 10° S
Cosmos 1470 Rocket 4.1 18:32:50 10° NNW 18:37:13 58° W 18:41:36 10° S
Cosmos 1328 Rocket 4.1 18:34:06 10° SSW 18:38:29 58° WNW 18:40:29 30° N
SL-16 R/B 4.4 18:37:17 10° N 18:38:38 11° N 18:38:38 11° N
ISS -0.5 18:38:32 10° WSW 18:39:25 11° SW 18:40:16 10° SSW
Cosmos 1833 Rocket 4.2 18:34:41 10° WSW 18:39:38 31° NW 18:43:03 17° N
USA 306 3.1 18:35:45 10° WNW 18:39:36 69° WSW 18:39:36 69° WSW
H-2A R/B 3.6 18:37:35 10° SSW 18:42:14 34° W 18:46:48 10° NNW
CZ-2C R/B 2.9 18:44:29 23° N 18:47:45 64° WNW 18:52:51 10° SSW
Cosmos 2219 Rocket 3.4 18:43:07 10° NNW 18:46:30 29° N 18:46:30 29° N
Cosmos 1125 Rocket 4.0 18:44:03 10° NNW 18:49:13 58° WSW 18:54:22 10° S
SKYMED 2 4.2 18:48:31 44° NNW 18:49:26 54° WNW 18:53:40 10° SSW
USA 32 4.1 18:45:04 10° S 18:49:25 63° SSE 18:49:25 63° SSE
ATLAS CENTAUR R/B 2.8 18:48:23 10° W 18:54:28 48° NW 18:54:28 48° NW
NOSS 3-4 (A) 3.9 18:48:21 10° NW 18:54:51 52° NNE 18:55:00 51° NE
NOSS 3-4 (C) 3.9 18:48:27 10° NW 18:54:56 51° NNE 18:55:05 51° NE
ATLAS 2AS CENTAUR R/B 3.5 18:50:49 10° NW 18:57:45 37° NNE 18:58:02 37° NNE
Meteor 1-27 Rocket 3.9 18:52:26 10° S 18:56:41 55° S 18:56:41 55° S
USA 307 3.9 18:55:24 10° WNW 18:58:27 44° W 18:58:27 44° W
Lacrosse 5 rocket 3.5 19:12:01 10° W 19:14:52 21° SW 19:14:52 21° SW
ATLAS CENTAUR R/B 4.2 19:16:08 10° NNW 19:17:07 13° NNW 19:17:07 13° NNW
Cosmos 2360 Rocket 2.6 19:14:32 10° NNW 19:19:09 59° NW 19:19:09 59° NW
COSMOS 2428 4.4 19:31:52 10° NNW 19:34:07 24° NNW 19:34:07 24° NNW
COSMOS 2455 4.2 19:33:58 10° W 19:39:15 30° NNW 19:39:49 30° NNW
Cosmos 2322 Rocket 3.5 19:36:04 10° NW 19:41:13 36° WSW 19:42:10 34° SW
SL-16 R/B 4.4 19:55:56 10° NW 20:00:01 21° W 20:03:05 14° SW
USA 267 4.1 20:06:46 45° NW 20:06:46 45° NW 20:11:31 10° W
Cosmos 2082 Rocket 4.3 20:02:42 10° W 20:06:45 20° NNW 20:06:45 20° NNW
Cosmos 2333 Rocket 4.2 20:11:01 10° NW 20:13:07 23° NW 20:13:07 23° NW
ATLAS 2AS CENTAUR R/B 4.4 20:42:19 10° NW 20:45:28 28° NW 20:45:28 28° NW
